Time,TemperatureF,DewpointF,PressureIn,WindDirection,WindDirectionDegrees,WindSpeedMPH,WindSpeedGustMPH,Humidity,HourlyPrecipIn,Conditions,Clouds,dailyrainin,SoftwareType,DateUTC
2013-01-15 00:02:00,36.0,26.0,30.49,NNW,340,0.0,1.0,66,0.02,,,0.03,,2013-01-15 08:02:00,
2013-01-15 00:11:00,36.0,26.0,30.49,NNW,340,0.0,1.0,66,0.02,,,0.03,,2013-01-15 08:11:00,
2013-01-15 00:22:00,35.0,25.0,30.49,North,360,0.0,2.0,66,0.02,,,0.03,,2013-01-15 08:22:00,
2013-01-15 00:32:00,36.0,26.0,30.49,North,357,0.0,3.0,67,0.00,,,0.03,,2013-01-15 08:32:00,
2013-01-15 00:42:00,36.0,26.0,30.49,North,357,0.0,3.0,67,0.00,,,0.03,,2013-01-15 08:42:00,
2013-01-15 00:52:00,36.0,26.0,30.49,NNW,342,1.0,2.0,67,0.00,,,0.03,,2013-01-15 08:52:00,
2013-01-15 01:02:00,36.0,26.0,30.50,SSW,200,0.0,1.0,66,0.00,,,0.03,,2013-01-15 09:02:00,
2013-01-15 01:11:00,36.0,26.0,30.50,SSW,200,0.0,1.0,66,0.00,,,0.03,,2013-01-15 09:11:00,
2013-01-15 01:22:00,35.0,25.0,30.50,SW,220,0.0,1.0,66,0.00,,,0.03,,2013-01-15 09:22:00,
2013-01-15 01:33:00,35.0,25.0,30.49,NNW,340,0.0,2.0,67,0.00,,,0.03,,2013-01-15 09:33:00,
2013-01-15 01:42:00,35.0,25.0,30.49,NNW,340,0.0,2.0,67,0.00,,,0.03,,2013-01-15 09:42:00,
2013-01-15 01:52:00,35.0,25.0,30.49,NNW,340,0.0,0.0,67,0.00,,,0.03,,2013-01-15 09:52:00,
2013-01-15 02:02:00,35.0,25.0,30.50,NNW,339,1.0,4.0,67,0.00,,,0.03,,2013-01-15 10:02:00,
2013-01-15 02:11:00,35.0,25.0,30.50,NNW,339,1.0,4.0,67,0.00,,,0.03,,2013-01-15 10:11:00,
2013-01-15 02:22:00,35.0,25.0,30.51,NNW,339,2.0,4.0,67,0.00,,,0.03,,2013-01-15 10:22:00,
2013-01-15 02:32:00,35.0,25.0,30.52,NNW,340,0.0,0.0,66,0.00,,,0.03,,2013-01-15 10:32:00,
2013-01-15 02:42:00,35.0,25.0,30.52,NNW,340,0.0,0.0,66,0.00,,,0.03,,2013-01-15 10:42:00,
2013-01-15 02:52:00,35.0,25.0,30.52,NNW,340,0.0,0.0,67,0.00,,,0.03,,2013-01-15 10:52:00,
2013-01-15 03:02:00,35.0,25.0,30.53,North,360,0.0,0.0,67,0.00,,,0.03,,2013-01-15 11:02:00,
2013-01-15 03:11:00,35.0,25.0,30.53,NNW,340,0.0,0.0,67,0.00,,,0.03,,2013-01-15 11:11:00,
2013-01-15 03:22:00,35.0,25.0,30.53,NNW,340,0.0,0.0,67,0.00,,,0.03,,2013-01-15 11:22:00,
2013-01-15 03:32:00,35.0,25.0,30.52,NNW,340,0.0,0.0,67,0.00,,,0.03,,2013-01-15 11:32:00,
2013-01-15 03:42:00,35.0,25.0,30.52,NNW,340,0.0,0.0,67,0.00,,,0.03,,2013-01-15 11:42:00,
2013-01-15 03:52:00,35.0,25.0,30.53,NNW,340,0.0,0.0,67,0.00,,,0.03,,2013-01-15 11:52:00,
2013-01-15 04:02:00,35.0,25.0,30.53,NNW,340,0.0,0.0,67,0.00,,,0.03,,2013-01-15 12:02:00,
2013-01-15 04:11:00,35.0,25.0,30.53,NNW,340,0.0,0.0,67,0.00,,,0.03,,2013-01-15 12:11:00,
2013-01-15 04:22:00,35.0,25.0,30.53,NNW,340,0.0,0.0,67,0.00,,,0.03,,2013-01-15 12:22:00,
2013-01-15 04:32:00,35.0,25.0,30.52,North,360,0.0,0.0,67,0.00,,,0.03,,2013-01-15 12:32:00,
2013-01-15 04:42:00,35.0,25.0,30.52,North,360,0.0,0.0,67,0.00,,,0.03,,2013-01-15 12:42:00,
2013-01-15 04:52:00,35.0,25.0,30.52,North,360,0.0,0.0,67,0.00,,,0.03,,2013-01-15 12:52:00,
2013-01-15 05:02:00,35.0,25.0,30.52,NE,40,0.0,0.0,67,0.00,,,0.03,,2013-01-15 13:02:00,
2013-01-15 05:11:00,35.0,25.0,30.52,NE,40,0.0,0.0,67,0.00,,,0.03,,2013-01-15 13:11:00,
2013-01-15 05:22:00,35.0,25.0,30.52,NE,40,0.0,0.0,67,0.00,,,0.03,,2013-01-15 13:22:00,
2013-01-15 05:33:00,35.0,25.0,30.53,NNW,340,0.0,0.0,67,0.00,,,0.03,,2013-01-15 13:33:00,
2013-01-15 05:42:00,35.0,25.0,30.53,NNW,340,0.0,0.0,67,0.00,,,0.03,,2013-01-15 13:42:00,
2013-01-15 05:52:00,35.0,25.0,30.53,NNW,340,0.0,0.0,66,0.00,,,0.03,,2013-01-15 13:52:00,
2013-01-15 06:02:00,34.0,24.0,30.53,NNW,340,0.0,0.0,67,0.00,,,0.03,,2013-01-15 14:02:00,
2013-01-15 06:22:00,34.0,24.0,30.53,NNW,340,0.0,0.0,66,0.00,,,0.03,,2013-01-15 14:22:00,
2013-01-15 06:33:00,34.0,24.0,30.54,NNW,340,0.0,0.0,67,0.00,,,0.03,,2013-01-15 14:33:00,
2013-01-15 07:02:00,35.0,26.0,30.54,SSW,200,0.0,0.0,68,0.00,,,0.03,,2013-01-15 15:02:00,
2013-01-15 07:12:00,35.0,26.0,30.54,SSW,200,0.0,0.0,68,0.00,,,0.03,,2013-01-15 15:12:00,
2013-01-15 07:22:00,35.0,26.0,30.53,NNW,340,0.0,0.0,68,0.00,,,0.03,,2013-01-15 15:22:00,
2013-01-15 07:33:00,35.0,26.0,30.55,North,360,0.0,2.0,68,0.00,,,0.03,,2013-01-15 15:33:00,
2013-01-15 07:42:00,35.0,26.0,30.55,North,360,0.0,2.0,68,0.00,,,0.03,,2013-01-15 15:42:00,
2013-01-15 07:52:00,35.0,25.0,30.55,North,360,0.0,0.0,67,0.00,,,0.03,,2013-01-15 15:52:00,
2013-01-15 08:02:00,35.0,25.0,30.56,North,360,0.0,0.0,67,0.00,,,0.03,,2013-01-15 16:02:00,
2013-01-15 08:11:00,35.0,25.0,30.56,North,360,0.0,0.0,67,0.00,,,0.03,,2013-01-15 16:11:00,
2013-01-15 08:22:00,35.0,25.0,30.56,NNW,340,0.0,0.0,66,0.00,,,0.03,,2013-01-15 16:22:00,
2013-01-15 08:32:00,35.0,25.0,30.56,NNW,345,3.0,4.0,67,0.00,,,0.03,,2013-01-15 16:32:00,
2013-01-15 08:42:00,35.0,25.0,30.56,NNW,345,3.0,4.0,67,0.00,,,0.03,,2013-01-15 16:42:00,
2013-01-15 08:53:00,35.0,25.0,30.57,NNW,343,2.0,5.0,67,0.00,,,0.03,,2013-01-15 16:53:00,
2013-01-15 09:03:00,35.0,26.0,30.57,NNW,343,1.0,2.0,68,0.00,,,0.03,,2013-01-15 17:03:00,
2013-01-15 09:12:00,35.0,26.0,30.57,NNW,343,1.0,2.0,68,0.00,,,0.03,,2013-01-15 17:12:00,
2013-01-15 09:22:00,36.0,26.0,30.57,NNW,340,0.0,0.0,67,0.00,,,0.03,,2013-01-15 17:22:00,
2013-01-15 09:33:00,36.0,26.0,30.58,SW,230,0.0,4.0,66,0.00,,,0.03,,2013-01-15 17:33:00,
2013-01-15 09:42:00,36.0,26.0,30.58,SW,230,0.0,4.0,66,0.00,,,0.03,,2013-01-15 17:42:00,
2013-01-15 09:53:00,37.0,27.0,30.58,NNE,12,2.0,5.0,67,0.00,,,0.03,,2013-01-15 17:53:00,
2013-01-15 10:02:00,37.0,27.0,30.58,NNW,345,2.0,5.0,66,0.00,,,0.03,,2013-01-15 18:02:00,
2013-01-15 10:12:00,37.0,27.0,30.58,NNW,345,2.0,5.0,66,0.00,,,0.03,,2013-01-15 18:12:00,
2013-01-15 10:22:00,36.0,26.0,30.58,NNW,343,3.0,9.0,66,0.00,,,0.03,,2013-01-15 18:22:00,
2013-01-15 10:33:00,37.0,27.0,30.58,NNW,339,0.0,4.0,66,0.00,,,0.03,,2013-01-15 18:33:00,
2013-01-15 10:42:00,37.0,27.0,30.58,NNW,339,0.0,4.0,66,0.00,,,0.03,,2013-01-15 18:42:00,
2013-01-15 10:52:00,37.0,27.0,30.58,North,358,1.0,4.0,66,0.00,,,0.03,,2013-01-15 18:52:00,
2013-01-15 11:03:00,37.0,26.0,30.58,NNE,30,0.0,4.0,64,0.00,,,0.03,,2013-01-15 19:03:00,
2013-01-15 11:12:00,37.0,26.0,30.58,NNE,30,0.0,4.0,64,0.00,,,0.03,,2013-01-15 19:12:00,
2013-01-15 11:22:00,37.0,26.0,30.58,NE,39,2.0,5.0,64,0.00,,,0.03,,2013-01-15 19:22:00,
2013-01-15 11:33:00,38.0,27.0,30.58,NNW,341,1.0,2.0,63,0.00,,,0.03,,2013-01-15 19:33:00,
2013-01-15 11:42:00,38.0,27.0,30.58,NNW,341,1.0,2.0,63,0.00,,,0.03,,2013-01-15 19:42:00,
2013-01-15 11:52:00,38.0,27.0,30.58,SW,214,0.0,2.0,64,0.00,,,0.03,,2013-01-15 19:52:00,
2013-01-15 12:02:00,38.0,26.0,30.58,NNE,25,2.0,4.0,62,0.00,,,0.03,,2013-01-15 20:02:00,
2013-01-15 12:11:00,38.0,26.0,30.58,NNE,25,2.0,4.0,62,0.00,,,0.03,,2013-01-15 20:11:00,
2013-01-15 12:22:00,39.0,28.0,30.57,NE,44,2.0,6.0,64,0.00,,,0.03,,2013-01-15 20:22:00,
2013-01-15 12:33:00,39.0,27.0,30.57,NNE,33,4.0,7.0,62,0.00,,,0.03,,2013-01-15 20:33:00,
2013-01-15 12:42:00,39.0,27.0,30.57,NNE,33,4.0,7.0,62,0.00,,,0.03,,2013-01-15 20:42:00,
2013-01-15 12:52:00,39.0,27.0,30.57,NNE,20,0.0,6.0,62,0.00,,,0.03,,2013-01-15 20:52:00,
2013-01-15 13:02:00,39.0,27.0,30.57,NNE,20,2.0,4.0,61,0.00,,,0.02,,2013-01-15 21:02:00,
2013-01-15 13:12:00,39.0,27.0,30.57,NNE,20,2.0,4.0,61,0.00,,,0.02,,2013-01-15 21:12:00,
2013-01-15 13:22:00,39.0,27.0,30.58,NNE,20,3.0,6.0,61,0.00,,,0.02,,2013-01-15 21:22:00,
2013-01-15 13:33:00,39.0,27.0,30.57,NNW,341,2.0,5.0,62,0.00,,,0.02,,2013-01-15 21:33:00,
2013-01-15 13:42:00,39.0,27.0,30.57,NNW,341,2.0,5.0,62,0.00,,,0.02,,2013-01-15 21:42:00,
2013-01-15 13:52:00,39.0,27.0,30.57,NNW,341,2.0,5.0,62,0.00,,,0.02,,2013-01-15 21:52:00,
2013-01-15 14:02:00,39.0,27.0,30.57,NNW,341,2.0,5.0,62,0.00,,,0.02,,2013-01-15 22:02:00,
2013-01-15 14:23:00,39.0,27.0,30.58,NNW,345,3.0,7.0,62,0.00,,,0.02,,2013-01-15 22:23:00,
2013-01-15 14:33:00,39.0,27.0,30.58,North,351,3.0,8.0,61,0.01,,,0.03,,2013-01-15 22:33:00,
2013-01-15 14:43:00,39.0,27.0,30.58,North,351,3.0,8.0,61,0.01,,,0.03,,2013-01-15 22:43:00,
2013-01-15 14:52:00,39.0,27.0,30.58,NNW,343,4.0,6.0,62,0.01,,,0.03,,2013-01-15 22:52:00,
2013-01-15 15:02:00,39.0,27.0,30.58,North,350,3.0,7.0,61,0.01,,,0.03,,2013-01-15 23:02:00,
2013-01-15 15:12:00,39.0,27.0,30.58,North,350,3.0,7.0,61,0.01,,,0.03,,2013-01-15 23:12:00,
2013-01-15 15:22:00,39.0,27.0,30.58,North,356,4.0,6.0,61,0.01,,,0.03,,2013-01-15 23:22:00,
2013-01-15 15:32:00,39.0,27.0,30.58,North,360,0.0,6.0,61,0.00,,,0.03,,2013-01-15 23:32:00,
2013-01-15 15:42:00,39.0,27.0,30.58,North,360,0.0,6.0,61,0.00,,,0.03,,2013-01-15 23:42:00,
2013-01-15 15:52:00,39.0,27.0,30.58,SSE,160,0.0,4.0,61,0.00,,,0.03,,2013-01-15 23:52:00,
2013-01-15 16:02:00,39.0,26.0,30.58,SSW,200,0.0,0.0,60,0.00,,,0.03,,2013-01-16 00:02:00,
2013-01-15 16:12:00,39.0,26.0,30.58,SSW,200,0.0,0.0,60,0.00,,,0.03,,2013-01-16 00:12:00,
2013-01-15 16:22:00,39.0,27.0,30.58,SW,220,0.0,0.0,62,0.00,,,0.03,,2013-01-16 00:22:00,
2013-01-15 16:32:00,39.0,27.0,30.58,SSW,200,0.0,0.0,62,0.00,,,0.03,,2013-01-16 00:32:00,
2013-01-15 16:42:00,39.0,27.0,30.58,SSW,200,0.0,0.0,62,0.00,,,0.03,,2013-01-16 00:42:00,
2013-01-15 16:52:00,39.0,27.0,30.56,SSW,200,0.0,0.0,63,0.00,,,0.03,,2013-01-16 00:52:00,
2013-01-15 17:02:00,38.0,27.0,30.57,SSE,160,0.0,0.0,64,0.00,,,0.03,,2013-01-16 01:02:00,
2013-01-15 17:11:00,38.0,27.0,30.57,SSE,160,0.0,0.0,64,0.00,,,0.03,,2013-01-16 01:11:00,
2013-01-15 17:22:00,38.0,27.0,30.57,SSE,160,0.0,0.0,63,0.00,,,0.03,,2013-01-16 01:22:00,
2013-01-15 17:32:00,36.0,24.0,30.57,NNW,340,0.0,1.0,62,0.00,,,0.03,,2013-01-16 01:32:00,
2013-01-15 17:52:00,36.0,24.0,30.57,SW,220,0.0,1.0,62,0.00,,,0.03,,2013-01-16 01:52:00,
2013-01-15 18:02:00,35.0,24.0,30.57,SSE,160,0.0,3.0,64,0.00,,,0.03,,2013-01-16 02:02:00,
2013-01-15 18:22:00,34.0,22.0,30.57,SSE,160,0.0,0.0,62,0.00,,,0.03,,2013-01-16 02:22:00,
2013-01-15 18:32:00,34.0,23.0,30.57,SSE,160,0.0,1.0,64,0.00,,,0.03,,2013-01-16 02:32:00,
2013-01-15 18:52:00,33.0,23.0,30.57,SSE,160,0.0,1.0,65,0.00,,,0.03,,2013-01-16 02:52:00,
2013-01-15 19:02:00,34.0,24.0,30.57,SW,230,0.0,0.0,66,0.00,,,0.03,,2013-01-16 03:02:00,
2013-01-15 19:11:00,34.0,24.0,30.57,North,360,0.0,2.0,66,0.00,,,0.03,,2013-01-16 03:11:00,
2013-01-15 19:22:00,34.0,24.0,30.57,North,360,0.0,2.0,66,0.00,,,0.03,,2013-01-16 03:22:00,
2013-01-15 19:32:00,34.0,24.0,30.58,North,360,0.0,1.0,67,0.00,,,0.03,,2013-01-16 03:32:00,
2013-01-15 19:52:00,34.0,24.0,30.59,NNW,340,0.0,0.0,67,0.00,,,0.03,,2013-01-16 03:52:00,
2013-01-15 20:01:00,35.0,25.0,30.59,North,360,0.0,0.0,66,0.00,,,0.03,,2013-01-16 04:01:00,
2013-01-15 20:11:00,35.0,25.0,30.59,North,360,0.0,0.0,66,0.00,,,0.03,,2013-01-16 04:11:00,
2013-01-15 20:22:00,35.0,25.0,30.58,North,360,0.0,0.0,66,0.00,,,0.03,,2013-01-16 04:22:00,
2013-01-15 20:32:00,35.0,25.0,30.58,North,360,0.0,0.0,67,0.00,,,0.03,,2013-01-16 04:32:00,
2013-01-15 20:42:00,35.0,25.0,30.58,North,360,0.0,0.0,67,0.00,,,0.03,,2013-01-16 04:42:00,
2013-01-15 20:52:00,35.0,25.0,30.58,North,360,0.0,0.0,67,0.00,,,0.03,,2013-01-16 04:52:00,
2013-01-15 21:02:00,34.0,24.0,30.58,North,360,0.0,0.0,67,0.00,,,0.03,,2013-01-16 05:02:00,
2013-01-15 21:22:00,34.0,24.0,30.58,NNW,340,0.0,0.0,67,0.00,,,0.03,,2013-01-16 05:22:00,
2013-01-15 21:32:00,33.0,23.0,30.56,SSW,200,0.0,0.0,66,0.00,,,0.03,,2013-01-16 05:32:00,
2013-01-15 21:52:00,33.0,23.0,30.57,NNW,340,0.0,0.0,66,0.00,,,0.03,,2013-01-16 05:52:00,
2013-01-15 22:02:00,33.0,23.0,30.57,SSW,200,0.0,0.0,67,0.00,,,0.03,,2013-01-16 06:02:00,
2013-01-15 22:22:00,33.0,23.0,30.57,SSE,160,0.0,0.0,66,0.00,,,0.03,,2013-01-16 06:22:00,
2013-01-15 22:32:00,33.0,24.0,30.57,SSE,160,0.0,0.0,68,0.00,,,0.03,,2013-01-16 06:32:00,
2013-01-15 22:52:00,33.0,24.0,30.57,SSE,160,0.0,0.0,69,0.00,,,0.03,,2013-01-16 06:52:00,
2013-01-15 23:02:00,34.0,25.0,30.57,SSE,160,0.0,0.0,69,0.00,,,0.03,,2013-01-16 07:02:00,
2013-01-15 23:11:00,34.0,25.0,30.57,SSE,160,0.0,0.0,69,0.00,,,0.03,,2013-01-16 07:11:00,
2013-01-15 23:22:00,34.0,25.0,30.57,NE,40,1.0,4.0,68,0.00,,,0.03,,2013-01-16 07:22:00,
2013-01-15 23:32:00,35.0,26.0,30.57,NE,40,2.0,6.0,69,0.00,,,0.03,,2013-01-16 07:32:00,
2013-01-15 23:42:00,35.0,26.0,30.57,NE,40,2.0,6.0,69,0.00,,,0.03,,2013-01-16 07:42:00,
2013-01-15 23:52:00,35.0,26.0,30.56,NNE,24,3.0,7.0,68,0.00,,,0.03,,2013-01-16 07:52:00,